{"data":{"norad_id":65676,"epoch":"2026-05-24T22:57:20.212416Z","epoch_age_seconds":82119,"freshness":"FRESH","line1":"1 65676U 25212A   26144.95648394  .00012688  00000+0  43968-3 0  9994","line2":"2 65676  53.1605 351.1913 0001045  92.7797 267.3323 15.30207406 38876","mean_motion":15.30207406,"eccentricity":0.0001045,"inclination_deg":53.1605,"raan_deg":351.1913,"arg_perigee_deg":92.7797,"mean_anomaly_deg":267.3323,"bstar":0.00043968,"rev_number":3887,"period_min":94.104890249107,"perigee_km":474.47678354699,"apogee_km":475.90912950791,"semimajor_km":6853.3299565275,"source":"CELESTRAK","updated_at":"2026-05-25T13:38:20.893299Z"}}